Location: Darmstadt
(49.8706°N, 8.6494°E)
Time: 07:30:55
(UTC+01:00)

CZ-4C R/B - Pass Details

Date: 31 October 2020
Orbit: 623 x 1378 km, 63.4° (Epoch: 02 December)

Event Time Altitude Azimuth Distance (km) Brightness Sun altitude
Rises 20:46:15 0° 316° (NW) 3,806 6.4 -35.9°
Reaches altitude 10° 20:48:45 10° 313° (NW) 2,952 5.7 -36.3°
Enters shadow 20:55:07 59° 258° (WSW) 1,390 3.3 -37.2°
